Location: Grantsboro
(35.1404°N, 76.8424°W)
Time: 21:27:40
(UTC+00:00)

Cosmos 1242 Rocket - Pass Details

Date: 18 January 2020
Orbit: 449 x 487 km, 81.2° (Epoch: 17 February)

Event Time Altitude Azimuth Distance (km) Brightness Sun altitude
Exits shadow 10:22:07 26° 184° (S) 998 4.1 -22.7°
Drops below altitude 10° 10:23:47 10° 179° (S) 1,664 5.4 -22.4°
Sets 10:25:53 0° 177° (S) 2,541 6.4 -22.0°
